EHI
0 0 0 0 0 0 0 0 0 0 0 0 0 0 0 0 0 0 0 0 0 0 0 0 0 0 1 2 3 4 5 5 4 4 4 3 4 4 5 5 4 3 4 5
0 0 0 0 0 0 0 0 0 0 0 0 0 0 0 0 0 0 0 0 0 0 0 0 0 0 0 1 3 4 5 4 3 3 3 3 3 4 4 4 3 3 4 5
0 0 0 0 0 0 0 0 0 0 0 0 0 0 0 0 0 0 0 0 0 0 0 0 0 0 0 1 3 5 5 3 1 1 1 1 2 3 3 3 3 3 3 4
0 0 0 0 0 0 0 0 0 0 0 0 0 0 0 0 0 0 0 0 0 0 0 0 0 0 0 1 3 5 4 2 0 0 0 0 1 2 3 3 3 3 2 2
0 0 0 0 0 0 0 0 0 0 0 0 0 0 0 0 0 0 0 0 0 0 1 1 1 0 0 1 2 4 3 1 0 0 0 0 0 1 1 2 3 3 2 1
0 0 0 0 0 0 0 0 0 0 0 0 0 0 0 0 0 0 0 0 0 0 1 1 1 0 0 0 1 3 3 1 0 0 0 0 0 0 0 1 2 3 3 3
0 0 0 0 0 0 0 0 0 0 0 0 0 0 0 0 0 0 0 0 0 0 0 1 1 0 0 0 1 2 2 1 0 0 0 0 0 0 0 0 1 2 3 4
0 0 0 0 0 0 0 0 0 0 0 0 0 0 0 0 0 0 0 0 0 0 0 0 0 0 0 0 1 2 2 1 0 0 0 0 0 0 0 0 0 1 2 3
0 0 0 0 0 0 0 0 0 0 0 0 0 0 0 0 0 0 0 0 0 0 0 0 0 0 0 0 0 1 2 1 0 0 0 0 0 0 0 0 0 0 1 1
0 0 0 0 0 0 0 0 0 0 0 0 0 0 0 0 0 0 0 0 0 0 0 0 0 0 0 0 0 1 2 1 1 0 0 0 0 0 0 0 0 0 0 0
0 0 0 0 0 0 0 0 0 0 0 0 0 0 0 0 0 0 0 0 0 0 0 0 0 0 0 0 0 1 2 2 1 0 0 0 0 0 0 0 0 0 0 0
0 0 0 0 0 0 0 0 0 0 0 0 0 0 0 0 0 0 0 0 0 0 0 0 0 0 0 0 1 1 1 1 1 0 0 0 0 0 0 0 0 0 0 0
0 0 0 0 0 0 0 0 0 0 0 0 0 0 0 0 0 0 0 0 0 0 0 0 0 0 0 0 1 1 0 0 0 0 0 0 0 0 0 0 0 0 0 0
0 0 0 0 0 0 0 0 0 0 0 0 0 0 0 0 0 0 0 0 0 0 0 0 0 0 0 0 1 1 0 0 0 0 0 0 0 0 0 0 0 0 0 0
0 0 0 0 0 0 0 0 0 0 0 0 0 0 0 0 0 0 0 0 0 0 0 0 0 0 0 0 0 0 0 0 0 0 0 0 0 0 0 0 0 0 0 0
0 0 0 0 0 0 0 0 0 0 0 0 0 0 0 0 0 0 0 0 0 0 0 0 0 0 0 0 0 0 0 0 0 0 0 0 0 1 1 0 0 0 0 0
0 0 0 0 0 0 0 0 0 0 0 0 0 0 0 0 0 0 0 0 0 0 0 0 0 0 0 0 0 0 0 0 0 0 0 0 0 1 1 0 0 0 0 0
0 0 0 0 0 0 0 0 0 0 0 0 0 0 0 0 0 0 0 0 0 0 0 0 0 0 0 0 0 0 0 0 0 0 0 0 0 1 1 0 0 0 0 0
0 0 0 0 0 0 0 0 0 0 0 0 0 0 0 0 0 0 0 0 0 0 0 0 0 0 0 0 0 0 0 0 0 0 0 0 0 0 0 0 0 0 0 0
0 0 0 0 0 0 0 0 0 0 0 0 0 0 0 0 0 0 0 0 0 0 0 0 0 0 0 0 0 0 0 0 0 0 0 0 0 0 0 0 0 0 0 0
0 0 0 0 0 0 0 0 0 0 0 0 0 0 0 0 0 0 0 0 0 0 0 0 0 0 0 0 0 0 0 0 0 0 0 0 0 0 0 0 0 0 0 0
0 0 0 0 0 0 0 0 0 0 0 0 0 0 0 0 0 0 0 0 0 0 0 0 0 0 0 0 0 0 0 0 0 0 0 0 0 0 0 0 0 0 0 0
0 0 0 0 0 0 0 0 0 0 0 0 0 0 0 0 0 0 0 0 0 0 0 0 0 0 0 0 0 0 0 0 0 0 0 0 0 0 0 0 0 0 0 0
0 0 0 0 0 0 0 0 0 0 0 0 0 0 0 0 0 0 0 0 0 0 0 0 0 0 0 0 0 0 0 0 0 0 0 0 0 0 0 0 0 0 0 0
0 0 0 0 0 0 0 0 0 0 0 0 0 0 0 0 0 0 0 0 0 0 0 0 0 0 0 0 0 0 0 0 0 0 0 0 0 0 0 0 0 0 0 0
0 0 0 0 0 0 0 0 0 0 0 0 0 0 0 0 0 0 0 0 0 0 0 0 0 0 0 0 0 0 0 0 0 0 0 0 0 0 0 0 0 0 0 0
Wind_Speed
1 2 3 4 7 8 8 10 11 8 4 5 7 8 6 5 4 5 5 5 5 6 5 4 5 5 5 5 6 7 7 7 6 5 6 6 6 5 5 5 6 7 7 8
1 3 4 5 5 7 9 9 9 6 2 5 7 9 7 5 6 6 6 6 6 6 5 4 4 4 5 5 6 6 6 7 7 6 6 5 5 5 5 4 5 6 7 8
2 4 3 3 4 6 9 10 8 7 4 5 6 8 8 5 5 5 5 5 5 4 4 4 3 3 4 4 5 5 6 6 7 7 6 5 5 4 4 5 5 6 7 8
3 4 4 3 4 6 8 7 8 7 6 4 6 7 5 4 4 4 5 4 4 4 3 3 3 3 3 3 3 4 5 6 6 7 7 9 7 6 6 5 5 6 7 7
2 4 4 4 6 6 6 6 7 8 7 6 6 7 4 2 5 6 5 5 4 3 2 2 2 2 2 2 3 3 4 5 5 6 8 8 8 6 5 6 6 6 6 7
3 3 3 5 6 4 4 3 4 6 5 7 7 7 5 3 5 5 4 4 3 2 2 2 1 1 0 1 1 2 3 4 4 6 6 7 8 7 7 8 7 6 5 5
3 2 3 5 4 2 2 1 3 4 5 5 3 5 4 2 3 4 4 3 2 1 2 2 2 1 1 1 1 2 3 4 4 5 5 6 7 8 8 8 7 6 5 5
4 3 4 5 4 4 4 4 3 4 4 3 3 6 2 2 3 3 1 1 1 2 2 2 2 1 1 1 1 1 2 3 4 4 4 5 5 4 4 6 6 6 5 5
4 4 5 6 5 3 3 4 4 4 3 4 4 3 2 4 4 4 3 3 3 3 3 2 2 1 1 1 1 1 1 3 3 4 4 4 5 4 4 4 5 5 4 4
4 4 5 5 4 4 4 3 2 3 3 4 4 4 2 5 5 5 4 3 3 3 3 3 2 2 2 1 1 1 1 1 2 3 3 2 4 4 4 4 4 5 5 5
3 3 4 3 3 5 4 2 2 2 3 4 4 1 4 5 5 5 5 4 4 4 3 2 2 3 2 3 2 2 2 1 1 1 3 3 3 4 4 4 4 4 4 5
3 3 3 2 2 4 4 4 3 3 3 4 4 1 5 5 5 5 6 6 5 4 3 2 3 3 3 3 2 2 2 1 1 0 1 2 2 3 4 4 4 4 4 4
2 2 3 1 1 3 3 5 4 2 2 3 4 1 4 6 7 7 7 7 6 5 4 3 3 3 3 3 3 3 2 2 1 0 1 1 2 2 3 3 4 4 4 4
1 1 2 3 4 3 4 5 3 1 2 4 5 5 6 9 9 9 8 7 6 5 5 5 4 4 4 3 2 3 3 3 2 1 0 0 1 2 2 3 3 3 3 4
2 1 2 5 5 4 4 5 4 3 4 5 5 5 7 9 9 8 7 7 6 6 6 6 5 5 4 4 3 3 3 3 2 1 1 1 1 1 1 2 2 2 3 3
1 2 2 3 3 4 5 5 4 3 4 5 6 6 7 9 8 7 7 6 6 7 6 6 6 6 5 4 4 4 4 3 2 2 2 2 1 1 0 1 2 2 2 2
1 2 2 3 3 4 4 3 3 2 3 3 5 6 7 8 9 7 7 6 7 7 6 6 6 6 6 5 4 4 3 3 2 2 2 2 1 1 1 1 1 2 2 2
3 2 2 3 2 4 1 2 2 4 3 3 4 6 7 8 9 6 5 6 7 7 7 7 6 6 6 5 4 3 3 2 2 2 2 2 1 1 1 1 1 1 1 2
3 3 2 2 3 5 1 1 2 3 4 2 5 8 8 9 7 3 5 7 7 7 7 7 7 6 5 5 4 3 3 3 2 2 2 2 2 1 1 1 1 1 1 1
1 2 2 2 4 4 1 3 3 3 4 2 4 6 7 7 5 4 7 9 9 8 7 7 7 6 5 5 4 2 2 3 3 3 3 3 2 1 1 1 1 1 1 1
2 2 3 4 5 4 2 3 1 3 3 4 5 6 6 5 6 8 10 9 9 8 8 7 7 6 6 5 4 3 3 3 4 4 3 2 2 1 1 1 1 1 1 1
4 3 4 4 5 4 2 1 2 3 3 4 5 6 7 8 8 9 9 9 9 8 8 7 6 6 6 5 4 3 3 4 3 3 2 2 2 1 1 0 0 0 1 1
4 3 3 5 4 1 2 3 2 3 4 5 5 6 7 8 8 9 9 8 8 8 7 7 6 6 5 5 4 4 4 4 3 2 2 2 2 1 1 0 1 1 1 1
2 2 4 5 6 5 5 5 4 4 6 6 6 6 6 7 8 8 8 8 8 7 6 6 6 5 6 6 5 5 4 3 2 2 2 2 1 1 1 1 0 1 1 2
3 3 4 6 5 5 5 5 6 6 6 7 7 6 7 7 8 8 8 8 7 7 6 5 5 5 6 6 6 5 4 3 2 2 2 1 1 1 1 1 1 1 1 1
4 6 5 5 4 4 4 4 4 5 6 6 7 7 6 6 8 8 7 7 6 6 6 5 5 5 6 5 5 5 4 3 2 1 1 1 1 0 0 1 2 4 2 2
Wind_Direction
119 204 222 239 236 252 250 245 247 254 262 251 245 256 274 280 270 260 260 263 264 261 256 251 233 222 211 202 195 189 182 182 176 178 179 179 180 178 175 174 177 180 174 171
190 250 267 272 260 254 252 246 251 258 271 256 249 257 265 269 263 258 257 259 262 270 271 262 246 223 210 201 199 193 189 187 186 187 185 183 177 180 176 174 180 184 176 172
250 320 294 258 269 265 255 238 244 254 276 237 248 254 245 263 271 271 269 267 267 268 266 251 240 226 218 210 205 197 194 193 190 183 177 168 167 168 174 180 182 189 183 178
286 316 323 275 274 268 259 245 250 245 235 230 232 254 241 265 283 298 290 277 272 269 269 258 242 241 237 225 212 200 192 189 188 183 180 180 182 183 183 181 183 186 187 183
312 327 320 296 290 274 274 275 240 229 227 242 230 244 261 256 278 286 286 284 269 271 277 275 259 259 245 226 199 189 179 178 184 187 184 185 190 187 177 174 180 184 184 185
295 315 317 308 304 276 295 250 208 210 214 232 231 232 263 259 268 276 281 285 271 277 304 317 303 304 224 177 153 158 165 170 175 183 185 188 187 184 176 178 181 184 182 184
306 310 353 340 330 327 322 213 201 198 209 231 205 223 258 323 304 284 275 278 272 303 340 337 342 350 71 84 116 143 158 168 176 181 187 190 190 187 187 186 188 186 185 188
315 312 351 349 333 289 257 241 242 241 232 228 194 233 254 10 336 324 318 316 31 27 6 344 338 353 67 79 95 130 153 169 178 181 188 191 191 190 193 194 192 194 192 190
317 311 351 348 340 322 269 242 270 278 272 242 212 236 254 351 357 3 4 5 9 10 353 346 348 8 47 67 90 111 152 168 178 183 182 189 188 189 191 193 198 197 196 190
304 289 326 336 332 0 327 294 241 240 247 242 232 230 294 333 334 348 353 346 343 345 343 349 357 14 13 15 41 66 100 132 164 185 184 191 193 194 196 194 197 197 193 190
319 298 321 346 5 346 353 342 294 251 272 262 247 236 12 334 334 336 343 344 342 339 335 355 17 19 16 17 27 40 60 82 120 175 183 187 194 195 195 195 198 198 195 192
338 303 298 300 1 350 6 357 328 265 262 270 267 338 22 358 356 356 355 349 343 337 343 20 29 26 19 13 14 22 27 36 41 182 183 190 204 197 192 193 199 196 195 192
332 305 302 248 170 18 359 356 344 309 277 265 252 276 12 1 357 358 355 354 353 354 7 16 24 19 13 5 359 6 5 1 355 335 194 185 204 205 198 199 200 199 198 194
356 265 270 285 319 318 316 331 330 295 259 272 267 283 327 345 348 348 351 352 353 360 8 9 10 6 5 359 352 352 349 355 350 341 308 233 227 220 220 208 202 201 200 198
349 270 260 276 286 279 290 304 301 265 260 263 279 287 312 326 328 332 339 347 353 0 3 3 359 356 356 353 350 343 343 348 344 341 345 322 286 224 222 215 205 201 200 202
342 274 273 272 276 282 290 308 293 273 270 265 282 288 315 320 322 328 338 342 347 350 351 351 351 349 349 344 338 338 342 342 341 337 331 335 331 329 254 233 202 195 193 190
229 226 260 273 318 287 266 285 271 262 285 263 265 289 313 318 317 319 325 332 334 336 340 341 340 338 336 330 324 323 327 331 335 338 335 336 331 312 283 248 209 196 197 188
205 205 235 288 299 245 37 41 290 260 273 265 286 305 311 306 301 303 320 329 328 328 331 330 329 329 330 328 323 324 330 336 335 336 338 333 328 319 297 255 233 225 200 190
214 210 227 257 267 270 273 341 311 266 276 309 302 306 315 318 301 295 344 334 321 318 319 318 319 319 323 326 324 327 336 341 339 335 333 326 321 307 293 269 236 223 202 193
133 212 225 226 256 257 20 6 326 243 255 353 318 307 315 324 303 318 338 326 318 318 319 321 321 320 324 328 330 330 330 332 326 320 316 314 310 289 274 271 265 231 198 186
200 207 221 234 248 264 4 332 248 227 300 336 305 299 303 294 288 307 315 315 316 317 321 324 322 323 324 327 330 319 319 317 315 313 312 319 318 298 283 281 275 231 177 164
214 210 208 213 230 246 75 144 220 285 333 307 301 299 296 292 296 303 309 314 319 322 324 325 321 320 325 331 326 312 309 312 316 316 319 326 328 326 321 258 194 200 186 173
222 232 236 226 241 13 179 216 259 299 290 296 297 299 297 295 298 304 308 312 315 317 318 320 317 318 328 332 328 312 310 315 319 324 325 332 346 359 16 149 160 172 204 196
224 241 244 254 256 265 255 256 278 282 283 292 295 296 295 293 299 304 306 309 312 312 313 316 319 322 324 329 328 319 315 315 320 328 331 337 359 18 29 14 234 198 205 207
243 196 236 253 273 291 257 256 271 280 283 289 294 293 290 292 297 301 302 305 309 311 312 314 313 313 316 323 327 327 325 325 324 328 330 344 7 21 33 27 10 318 300 263
206 205 214 241 242 244 270 275 276 278 281 284 290 294 293 290 292 298 299 301 304 306 310 314 314 312 315 321 326 329 330 331 324 328 334 338 346 13 29 53 35 31 20 19